Cincinnati, OH

5:23 AM EDT on September 26, 2017 (GMT -0400)
Cincinnati Municipal-Lunken

Weather History for KLUK - October, 2012

Change the Weather History Date:

Monday, October 8, 2012

  Actual Average Record
Temperature  
Mean Temperature 45 °F -  
Max Temperature 55 °F 69 °F 91 °F (2007)
Min Temperature 35 °F 46 °F 33 °F (1974)
Degree Days  
Heating Degree Days 20    
Moisture  
Dew Point 36 °F    
Average Humidity 78    
Maximum Humidity 96    
Minimum Humidity 45    
Precipitation  
Precipitation 0.00 in - - ()
Sea Level Pressure  
Sea Level Pressure 30.23 in    
Wind  
Wind Speed 1 mph (ENE)    
Max Wind Speed 7 mph    
Max Gust Speed -    
Visibility 8 miles    
Events      
Averages and records for this station are not official NWS values.
T = Trace of Precipitation, MM = Missing Value Source: NWS Daily Summary

Daily Weather History Graph

Daily Weather History Graph

Search for Another Location

Airport or City:

Trip Planner

Search our weather history database for the weather conditions in past years. The results will help you decide how hot, cold, wet, or windy it might be!

Date:

Astronomy

Oct. 08, 2012 Rise Set
Actual Time 7:40 AM EDT 7:08 PM EDT
Civil Twilight 7:14 AM EDT 7:35 PM EDT
Nautical Twilight 6:43 AM EDT 8:06 PM EDT
Astronomical Twilight 6:12 AM EDT 8:37 PM EDT
Moon 12:22 AM EDT (10/8) 2:54 PM EDT (10/8)
Length of Visible Light 12h 21m
Length of Day
11h 27m
Waning Gibbous, 46% of the Moon is Illuminated
Oct 8
Waning Gibbous
Oct 15
New
Oct 21
First Quarter
Oct 29
Full
Nov 6
Last Quarter

Hourly Weather History & Observations

Time (EDT) Temp. Windchill Dew Point Humidity Pressure Visibility Wind Dir Wind Speed Gust Speed Precip Events Conditions
12:53 AM 37.9 °F - 36.0 °F 93% 30.23 in 10.0 mi Calm Calm - N/A   Overcast
1:53 AM 37.9 °F - 36.0 °F 93% 30.23 in 9.0 mi Calm Calm - N/A   Mostly Cloudy
2:53 AM 37.9 °F - 36.0 °F 93% 30.24 in 6.0 mi Calm Calm - N/A   Clear
3:39 AM 35.6 °F - 33.8 °F 93% 30.23 in 2.0 mi Calm Calm - N/A   Clear
3:53 AM 36.0 °F - 34.0 °F 93% 30.24 in 5.0 mi Calm Calm - N/A   Clear
4:38 AM 35.6 °F - 33.8 °F 93% 30.24 in 7.0 mi Calm Calm - N/A   Mostly Cloudy
4:53 AM 36.0 °F - 34.0 °F 93% 30.25 in 6.0 mi Calm Calm - N/A   Mostly Cloudy
5:44 AM 37.4 °F 34.9 °F 35.6 °F 93% 30.25 in 7.0 mi NE 3.5 mph - N/A   Overcast
5:53 AM 37.0 °F 34.5 °F 36.0 °F 96% 30.26 in 7.0 mi NE 3.5 mph - N/A   Overcast
6:53 AM 37.9 °F - 36.0 °F 93% 30.26 in 8.0 mi Calm Calm - N/A   Overcast
7:53 AM 37.9 °F - 36.0 °F 93% 30.26 in 5.0 mi Calm Calm - N/A   Clear
8:53 AM 39.0 °F - 37.0 °F 93% 30.27 in 8.0 mi Calm Calm - N/A   Clear
9:53 AM 41.0 °F - 37.9 °F 89% 30.27 in 10.0 mi Calm Calm - N/A   Clear
10:53 AM 45.0 °F - 37.9 °F 76% 30.29 in 10.0 mi Calm Calm - N/A   Clear
11:53 AM 48.9 °F - 37.9 °F 66% 30.28 in 10.0 mi NE 3.5 mph - N/A   Clear
12:53 PM 50.0 °F - 33.1 °F 52% 30.26 in 10.0 mi Calm Calm - N/A   Clear
1:53 PM 52.0 °F - 34.0 °F 50% 30.23 in 10.0 mi Calm Calm - N/A   Clear
2:53 PM 54.0 °F - 35.1 °F 49% 30.21 in 10.0 mi NW 4.6 mph - N/A   Clear
3:53 PM 55.9 °F - 35.1 °F 45% 30.19 in 10.0 mi Variable 4.6 mph - N/A   Clear
4:53 PM 53.1 °F - 36.0 °F 52% 30.18 in 10.0 mi South 4.6 mph - N/A   Clear
5:53 PM 55.0 °F - 35.1 °F 47% 30.16 in 10.0 mi South 6.9 mph - N/A   Clear
6:53 PM 53.1 °F - 35.1 °F 50% 30.16 in 10.0 mi Calm Calm - N/A   Clear
7:53 PM 44.1 °F - 37.9 °F 79% 30.18 in 10.0 mi Calm Calm - N/A   Clear
8:53 PM 42.1 °F - 37.9 °F 85% 30.18 in 10.0 mi Calm Calm - N/A   Clear
9:53 PM 42.8 °F - 37.4 °F 81% 30.18 in 10.0 mi Calm Calm - N/A   Clear
10:53 PM 39.9 °F - 37.0 °F 89% 30.20 in 10.0 mi Calm Calm - N/A   Clear
11:53 PM 41.0 °F - 37.0 °F 86% 30.20 in 10.0 mi Calm Calm - N/A   Clear